OpenBCM V1.13 (Linux)

Packet Radio Mailbox

DB0FHN

[JN59NK Nuernberg]

 Login: GUEST





  
CX2SA  > KEPS     05.11.04 13:49l 151 Lines 3942 Bytes #999 (0) @ AMSAT
BID : ORB04309.O
Read: GUEST
Subj: Orbital Elements  04309.OSCAR
Path: DB0FHN<DB0RGB<OK0PPL<DB0RES<ON0BEL<7M3TJZ<EA5AKC<CX2SA
Sent: 041105/1146Z @:CX2SA.LAV.URY.SA #:35117 [Minas] FBB7.00e $:ORB04309.O
From: CX2SA@CX2SA.LAV.URY.SA
To  : KEPS@AMSAT


HR AMSAT ORBITAL ELEMENTS FOR OSCAR SATELLITES
FROM WA5QGD FORT WORTH,TX November 4, 2004
SEND SUBSCRIBE/UNSUBSCRIBE TO majordomo@amsat.org ONLY
BID: ORB04309.O
TO ALL RADIO AMATEURS BT

Satellite: AO-07
Catalog number: 07530
Epoch time:      04309.17763915
Element set:     342
Inclination:      101.6650 deg
RA of node:       353.6339 deg
Eccentricity:    0.0012067
Arg of perigee:   311.2752 deg
Mean anomaly:      48.7281 deg
Mean motion:   12.53569259 rev/day
Decay rate:       -2.9e-07 rev/day^2
Epoch rev:           37145
Checksum:              294

Satellite: AO-10
Catalog number: 14129
Epoch time:      04306.55283818
Element set:    0118
Inclination:      026.7537 deg
RA of node:       063.7509 deg
Eccentricity:    0.6032723
Arg of perigee:   137.1310 deg
Mean anomaly:     290.2554 deg
Mean motion:   02.05867859 rev/day
Decay rate:        1.1e-07 rev/day^2
Epoch rev:           16084
Checksum:              289

Satellite: UO-11
Catalog number: 14781
Epoch time:      04309.41958227
Element set:     626
Inclination:       98.1892 deg
RA of node:       296.6737 deg
Eccentricity:    0.0009218
Arg of perigee:     9.3271 deg
Mean anomaly:     350.8110 deg
Mean motion:   14.79048683 rev/day
Decay rate:       9.41e-06 rev/day^2
Epoch rev:           10857
Checksum:              323

Satellite: RS-10/11
Catalog number: 18129
Epoch time:      04308.80215563
Element set:     531
Inclination:       82.9271 deg
RA of node:        44.8484 deg
Eccentricity:    0.0010573
Arg of perigee:   299.9672 deg
Mean anomaly:      60.0431 deg
Mean motion:   13.72747065 rev/day
Decay rate:        4.0e-07 rev/day^2
Epoch rev:           87015
Checksum:              291

Satellite: FO-20
Catalog number: 20480
Epoch time:      04308.61647603
Element set:     732
Inclination:       99.0278 deg
RA of node:       159.7126 deg
Eccentricity:    0.0540773
Arg of perigee:    30.9729 deg
Mean anomaly:     332.2115 deg
Mean motion:   12.83343072 rev/day
Decay rate:        4.0e-08 rev/day^2
Epoch rev:           69056
Checksum:              290

Satellite: RS-12/13
Catalog number: 21089
Epoch time:      04309.88025013
Element set:     754
Inclination:       82.9195 deg
RA of node:        77.3535 deg
Eccentricity:    0.0029493
Arg of perigee:   347.8416 deg
Mean anomaly:      12.2022 deg
Mean motion:   13.74442481 rev/day
Decay rate:        2.5e-07 rev/day^2
Epoch rev:           68968
Checksum:              312

Satellite: RS-15
Catalog number: 23439
Epoch time:      04308.86156580
Element set:    0824
Inclination:      064.8125 deg
RA of node:       111.9515 deg
Eccentricity:    0.0157146
Arg of perigee:   356.2101 deg
Mean anomaly:     003.7620 deg
Mean motion:   11.27550428 rev/day
Decay rate:       -3.9e-07 rev/day^2
Epoch rev:           40598
Checksum:              289

Satellite: FO-29
Catalog number: 24278
Epoch time:      04309.24102120
Element set:     819
Inclination:       98.5795 deg
RA of node:        22.8259 deg
Eccentricity:    0.0351481
Arg of perigee:    39.0500 deg
Mean anomaly:     323.5456 deg
Mean motion:   13.52904146 rev/day
Decay rate:       -1.5e-07 rev/day^2
Epoch rev:           40577
Checksum:              294

Satellite: SO-33
Catalog number: 25509
Epoch time:      04308.93216751
Element set:     228
Inclination:       31.4317 deg
RA of node:       225.7453 deg
Eccentricity:    0.0355763
Arg of perigee:   357.2674 deg
Mean anomaly:       2.6006 deg
Mean motion:   14.27893958 rev/day
Decay rate:       7.33e-06 rev/day^2
Epoch rev:           31460
Checksum:              305

Satellite: AO-40
Catalog number: 26609
Epoch time:      04306.40356977
Element set:     454
Inclination:        9.4693 deg
RA of node:       336.4516 deg
Eccentricity:    0.7961042
Arg of perigee:   334.5800 deg
Mean anomaly:       1.8362 deg
Mean motion:    1.25585198 rev/day
Decay rate:       -9.7e-07 rev/day^2
Epoch rev:            1839
Checksum:              318



Read previous mail | Read next mail


 11.09.2026 05:59:41lGo back Go up